Location: Berg
(48.4333°N, 13.9167°E)
Time: 06:21:26
(UTC+00:00)

SJ-6B - Pass Details

Date: 18 September 2020
Orbit: 511 x 580 km, 97.6° (Epoch: 27 October)

Event Time Altitude Azimuth Distance (km) Brightness Sun altitude
Exits shadow 19:21:51 19° 205° (SSW) 1,258 4.6 -21.7°
Maximum altitude 19:24:02 36° 262° (W) 822 4.1 -22.0°
Drops below altitude 10° 19:27:32 10° 331° (NNW) 1,753 6.2 -22.5°
Sets 19:29:46 0° 340° (NNW) 2,653 7.1 -22.9°
